Location: Alpha Ridge Park
(39.3209°N, 76.9128°W)
Time: 01:49:05
(UTC-04:00)

OTV 5 (USA 277) - Visible Passes

Search period start: 22 October 2019 00:00
Search period end: 01 November 2019 00:00
Orbit: 310 x 324 km, 54.5° (Epoch: 17 October)

Date Brightness Start Highest point End Pass type
(mag) Time Alt. Az. Time Alt. Az. Time Alt. Az.
22 Oct ? 06:07:29 19° SSW 06:07:29 19° SSW 06:08:50 10° S visible
26 Oct ? 20:12:37 10° SW 20:12:58 13° SW 20:12:58 13° SW visible
27 Oct ? 18:54:18 10° SSE 18:55:51 14° SE 18:56:48 12° ESE visible
27 Oct ? 20:27:25 10° WSW 20:27:43 12° WSW 20:27:43 12° WSW visible
28 Oct ? 19:07:37 10° SSW 19:10:12 41° SE 19:11:24 24° ENE visible
29 Oct ? 19:22:02 10° WSW 19:24:42 55° NW 19:25:53 28° NNE visible
30 Oct ? 19:37:10 10° W 19:39:23 21° NW 19:40:14 19° N visible
31 Oct ? 19:53:16 10° NW 19:54:12 11° NNW 19:54:30 11° NNW visible
